Location: Devore Heights
(34.2372°N, 117.4156°W)
Time: 02:45:26
(UTC+00:00)

SR - Pass Details

Date: 21 September 2024
Orbit: 578 x 855 km, 66.7° (Epoch: 02 October)

Event Time Altitude Azimuth Distance (km) Brightness Sun altitude
Rises 05:16:29 0° 326° (NNW) 3,018 ? -41.2°
Reaches altitude 10° 05:18:46 10° 321° (NW) 2,144 ? -41.6°
Enters shadow 05:19:01 11° 320° (NW) 2,055 ? -41.6°
Maximum altitude 05:23:28 49° 247° (WSW) 942 - -42.4°
Drops below altitude 10° 05:28:33 10° 174° (S) 2,310 - -43.2°
Sets 05:31:06 0° 169° (S) 3,276 - -43.6°
